[[{"header":{"parameterUnit":"m.s-1","parameterCategory":1,"la1":30.2991,"la2":30.254,"lo1":-89.0895,"lo2":-89.0444,"dy":0.0017,"dx":0.0017,"nx":28,"ny":28,"refTime":"2024-03-11T03:00:00:Z","depth":0,"parameterNumber":2,"parameterNumberName":"U-component_of_WINDS"},"data":[0,0,0,0,0,0,0,0,0,0,0,0,0,0,0,0,0,0,0,0,0,0,0,0,0,0,0,0,0,0,0,0,0,0,0,0,0,0,0,0,0,0,0,0,0,0,0,0,0,0,0,0,0,0,0,0,0,0,-2.8686,-2.8685,0,-2.8635,-2.8635,-2.8634,-2.8518,-2.8516,-2.8513,-2.8511,-2.8461,-2.8462,-2.8463,0,0,0,0,0,0,0,0,0,0,0,0,0,-2.8684,-2.8685,-2.8686,-2.8685,-2.8684,-2.8636,-2.8635,-2.8634,-2.8518,-2.8516,-2.8513,-2.851,-2.8461,-2.8462,-2.8463,0,0,0,0,0,0,0,0,0,0,0,0,0,-2.8665,-2.8685,-2.8686,-2.8621,-2.8614,-2.8636,-2.8635,-2.8634,-2.8519,-2.8515,-2.8512,-2.8508,-2.8461,-2.8462,-2.8464,-2.8545,0,0,-2.8468,-2.8468,0,0,0,0,0,0,0,0,-2.8666,-2.8665,-2.8631,-2.8625,-2.8618,-2.8579,-2.8616,-2.8604,-2.852,-2.8555,-2.8511,-2.8507,-2.8504,-2.8501,-2.85,-2.8542,-2.854,-2.8468,-2.8469,-2.8469,-2.847,0,0,0,0,0,0,0,-2.8668,-2.8666,-2.8666,-2.8631,-2.8623,-2.8595,-2.8588,-2.8613,-2.8551,-2.8552,-2.8543,-2.8539,-2.85,-2.8499,-2.8498,-2.8539,-2.8468,-2.8469,-2.847,-2.8471,-2.8647,-2.8651,0,0,0,0,0,0,-2.8678,-2.8668,-2.8667,-2.8664,-2.8634,-2.8598,-2.859,-2.8595,-2.855,-2.8539,-2.8542,-2.8534,-2.8498,-2.8496,-2.8496,-2.8588,-2.8469,-2.8471,-2.8471,-2.8644,-2.8648,-2.8652,0,0,0,0,0,0,-2.8678,-2.8679,-2.8669,-2.8664,-2.8661,-2.8602,-2.8608,-2.8596,-2.8595,-2.8542,-2.8531,-2.8553,-2.8495,-2.8494,-2.8533,-2.8584,-2.8471,-2.8473,-2.8639,-2.8645,-2.865,-2.8773,0,0,0,0,0,0,-2.8679,-2.868,-2.8709,-2.8665,-2.8661,-2.8707,-2.8612,-2.8598,-2.8598,-2.8586,-2.8549,-2.854,-2.8492,-2.8532,-2.8535,-2.8584,-2.8474,-2.8634,-2.8642,-2.8648,-2.8764,-2.8782,-2.8798,0,0,0,0,0,-2.8679,-2.8745,-2.8711,-2.8711,-2.8696,-2.871,-2.8708,-2.8652,-2.8603,-2.8632,-2.8598,-2.8541,-2.8579,-2.8537,-2.8539,-2.859,-2.8631,-2.864,-2.8648,-2.8756,-2.8779,-2.8797,0,0,0,0,0,0,-2.8796,-2.8738,-2.8699,-2.8753,-2.8738,-2.8691,-2.8725,-2.8677,-2.8675,-2.8664,-2.8595,-2.8588,-2.8637,-2.8618,-2.8572,-2.8667,-2.8596,-2.8605,-2.8677,-2.8698,-2.8715,-2.8718,-2.8475,0,0,0,0,0,-2.8828,-2.8844,-2.8793,-2.8845,-2.8839,-2.8785,-2.8788,-2.8747,-2.8728,-2.8721,-2.8689,-2.8674,-2.8683,-2.8689,-2.8694,-2.8762,-2.8752,-2.8798,-2.8815,-2.8829,-2.8837,-2.8873,-2.8892,-2.8681,-2.8681,-2.8681,0,0,-2.8894,-2.8865,-2.8879,-2.8868,-2.8851,-2.8869,-2.8779,-2.8802,-2.8815,-2.8724,-2.8759,-2.8737,-2.8715,-2.8769,-2.8792,-2.8754,-2.8894,-2.884,-2.8852,-2.8852,-2.8884,-2.8904,-2.8921,-2.8687,-2.8686,-2.8685,0,0,-2.9024,-2.9004,-2.9045,-2.9031,-2.9006,-2.8969,-2.898,-2.8941,-2.8922,-2.8957,-2.8889,-2.8905,-2.8921,-2.8908,-2.8904,-2.9033,-2.8981,-2.9037,-2.9125,-2.916,-2.9176,-2.9191,-2.9237,-2.9254,-2.9046,-2.9047,-2.9047,0,-2.9109,-2.9133,-2.9073,-2.9101,-2.9099,-2.9018,-2.906,-2.9049,-2.9028,-2.9029,-2.8988,-2.9007,-2.8987,-2.9038,-2.907,-2.9069,-2.9079,-2.904,-2.9179,-2.9193,-2.9205,-2.9248,-2.9266,-2.9054,-2.9053,-2.9052,-2.9051,0,-2.924,-2.9258,-2.9295,-2.9277,-2.9279,-2.9314,-2.9261,-2.9271,-2.923,-2.9199,-2.9236,-2.921,-2.9208,-2.9218,-2.9178,-2.9263,-2.9241,-2.9191,-2.9117,-2.9233,-2.9273,-2.9289,-2.9064,-2.9061,-2.9059,-2.9057,0,0,-2.9438,-2.9388,-2.9403,-2.9394,-2.9363,-2.9376,-2.9409,-2.9408,-2.9418,-2.9407,-2.9433,-2.945,-2.9404,-2.94,-2.9358,-2.939,-2.9494,-2.9335,-2.9334,-2.9365,-2.9587,-2.9625,-2.9645,-2.946,-2.9463,-2.9465,-2.9589,0,-2.9559,-2.9611,-2.9559,-2.9622,-2.9639,-2.9564,-2.9593,-2.9578,-2.955,-2.9561,-2.9531,-2.9544,-2.9482,-2.9479,-2.9507,-2.9476,-2.9538,-2.9466,-2.9484,-2.9485,-2.949,-2.9665,-2.9704,-2.9822,-2.9604,-2.9607,-2.9609,0,-2.9706,-2.9703,-2.9767,-2.9734,-2.9739,-2.9765,-2.9761,-2.9773,-2.9755,-2.9733,-2.973,-2.9681,-2.9712,-2.9642,-2.9685,-2.9638,-2.9642,-2.9629,-2.9632,-2.963,-2.9553,-2.9667,-2.9858,-2.9875,-2.9632,-2.963,-2.9629,0,-2.9844,-2.9856,-2.9896,-2.9891,-2.9853,-2.9874,-2.9859,-2.9838,-2.9841,-2.9838,-2.984,-2.9841,-2.9842,-2.9844,-2.9797,-2.9751,-2.9847,-2.9773,-2.9829,-2.9831,-2.9851,-2.985,-3.0044,-2.9857,-2.9857,-2.9856,-2.9856,0,-2.9984,-3.0026,-2.9958,-2.9982,-3.0028,-2.997,-3.0017,-2.9995,-2.9978,-2.9997,-2.9934,-2.9954,-2.9892,-2.9906,-2.987,-2.9911,-2.9912,-2.9896,-2.9885,-2.99,-2.9903,-2.9901,-2.9891,-2.9861,-2.986,-2.9859,-2.9858,0,-3.0144,-3.01,-3.0139,-3.0101,-3.0092,-3.0128,-3.0096,-3.0118,-3.0087,-3.0114,-3.0117,-3.0069,-3.0083,-3.0037,-3.0043,-3.0019,-3.008,-3.0057,-3.0086,-3.0078,-3.0137,-3.0132,-3.0336,-3.036,-3.0159,-3.0161,-3.0163,0,-3.0235,-3.0266,-3.0232,-3.024,-3.0229,-3.0244,-3.0248,-3.0193,-3.0199,-3.0183,-3.0208,-3.0216,-3.022,-3.0246,-3.0213,-3.0218,-3.0194,-3.0265,-3.0194,-3.0209,-3.0194,-3.0192,-3.0195,-3.0279,-3.0282,-3.0284,-3.0285,0,-3.0401,-3.0378,-3.0385,-3.0386,-3.0392,-3.039,-3.0383,-3.0394,-3.0336,-3.0347,-3.036,-3.0363,-3.0371,-3.038,-3.0379,-3.0365,-3.0316,-3.0309,-3.0322,-3.0336,-3.0352,-3.0344,-3.0124,-3.0303,-3.0301,-3.03,-3.0299,-3.0298,-3.0528,-3.0553,-3.0533,-3.0544,-3.0534,-3.053,-3.0549,-3.0522,-3.0532,-3.0533,-3.0501,-3.0522,-3.0506,-3.0499,-3.049,-3.0506,-3.0473,-3.0492,-3.0497,-3.0502,-3.0512,-3.0351,-3.0506,-3.0505,-3.0505,-3.0504,-3.0504,0,-3.069,-3.0675,-3.0685,-3.0679,-3.0688,-3.0642,-3.0634,-3.0644,-3.0663,-3.0652,-3.0658,-3.0675,-3.0685,-3.0654,-3.0659,-3.0678,-3.0656,-3.0682,-3.0679,-3.0676,-3.0541,-3.0529,-3.0699,-3.0699,-3.0699,-3.0699,-3.0699,-3.0699,-3.0775,-3.0815,-3.0791,-3.0825,-3.0809,-3.0829,-3.0828,-3.0825,-3.0816,-3.0837,-3.0845,-3.0825,-3.0807,-3.0811,-3.0819,-3.081,-3.0815,-3.0848,-3.0831,-3.0705,-3.0686,-3.0668,-3.0655,-3.085,-3.085,-3.0964,-3.0965,-3.0966]},{"header":{"parameterUnit":"m.s-1","parameterCategory":1,"la1":30.2991,"la2":30.254,"lo1":-89.0895,"lo2":-89.0444,"dy":0.0017,"dx":0.0017,"nx":28,"ny":28,"refTime":"2024-03-11T03:00:00:Z","depth":0,"parameterNumber":3,"parameterNumberName":"V-component_of_WINDS"},"data":[0,0,0,0,0,0,0,0,0,0,0,0,0,0,0,0,0,0,0,0,0,0,0,0,0,0,0,0,0,0,0,0,0,0,0,0,0,0,0,0,0,0,0,0,0,0,0,0,0,0,0,0,0,0,0,0,0,0,1.8724,1.8723,0,1.8699,1.8699,1.8698,1.8732,1.8734,1.8735,1.8736,1.8705,1.8704,1.8702,0,0,0,0,0,0,0,0,0,0,0,0,0,1.8797,1.8796,1.8724,1.8723,1.8723,1.8699,1.8699,1.8698,1.8732,1.8734,1.8735,1.8736,1.8706,1.8704,1.8701,0,0,0,0,0,0,0,0,0,0,0,0,0,1.8768,1.8795,1.8724,1.8737,1.8738,1.8699,1.8699,1.8698,1.8732,1.8734,1.8735,1.8737,1.8707,1.8704,1.8701,1.8646,0,0,1.8692,1.8691,0,0,0,0,0,0,0,0,1.8769,1.8765,1.8736,1.8736,1.8737,1.8721,1.8713,1.8681,1.8731,1.8734,1.8736,1.8738,1.8709,1.8706,1.8697,1.8645,1.8643,1.8692,1.869,1.8689,1.8688,0,0,0,0,0,0,0,1.8771,1.8766,1.8714,1.8735,1.8736,1.8743,1.8741,1.8707,1.8711,1.8734,1.8736,1.8733,1.8709,1.87,1.8696,1.8643,1.8692,1.8689,1.8687,1.8686,1.8545,1.8543,0,0,0,0,0,0,1.8772,1.8768,1.8715,1.8713,1.8758,1.8741,1.8738,1.8724,1.8712,1.8712,1.8732,1.8735,1.8704,1.87,1.8695,1.8631,1.8689,1.8686,1.8684,1.8547,1.8545,1.8543,0,0,0,0,0,0,1.8774,1.8767,1.8716,1.8741,1.8735,1.8737,1.8721,1.8723,1.8713,1.871,1.871,1.8721,1.8705,1.87,1.8659,1.863,1.8685,1.8682,1.8549,1.8546,1.8544,1.85,0,0,0,0,0,0,1.8776,1.8768,1.8747,1.8741,1.8734,1.868,1.8719,1.8721,1.8708,1.8712,1.87,1.87,1.8706,1.8663,1.8656,1.8627,1.868,1.8552,1.8548,1.8545,1.8504,1.8496,1.8489,0,0,0,0,0,1.8778,1.8735,1.8746,1.874,1.8709,1.8678,1.8674,1.8684,1.8706,1.8685,1.8684,1.87,1.8635,1.8658,1.8651,1.862,1.8554,1.8549,1.8545,1.8507,1.8497,1.8489,0,0,0,0,0,0,1.8736,1.8734,1.8747,1.87,1.8689,1.8684,1.8658,1.8673,1.8654,1.8658,1.867,1.8667,1.8623,1.8618,1.8644,1.8567,1.8598,1.8591,1.8572,1.8562,1.8555,1.8556,1.8677,0,0,0,0,0,1.8722,1.8699,1.8698,1.8656,1.8651,1.8655,1.8642,1.8651,1.864,1.8635,1.863,1.8617,1.8594,1.8578,1.8556,1.8504,1.8502,1.848,1.8472,1.8466,1.846,1.8432,1.8422,1.8528,1.8528,1.8528,0,0,1.8691,1.8687,1.8671,1.8648,1.8641,1.8615,1.8651,1.8623,1.8604,1.863,1.8591,1.8588,1.8574,1.8528,1.8507,1.8522,1.8431,1.846,1.8455,1.8453,1.8426,1.8416,1.8408,1.8525,1.8525,1.8526,0,0,1.8622,1.8617,1.8582,1.8575,1.8565,1.8568,1.856,1.8553,1.8552,1.8515,1.8534,1.8511,1.8471,1.8461,1.845,1.838,1.8394,1.8372,1.8332,1.8305,1.8297,1.8289,1.8264,1.8255,1.8367,1.8366,1.8366,0,1.8584,1.8548,1.8562,1.8533,1.8522,1.8547,1.8512,1.8503,1.8485,1.8477,1.8495,1.8446,1.8438,1.839,1.8373,1.8364,1.8354,1.8373,1.8297,1.829,1.8283,1.8259,1.8249,1.8364,1.8364,1.8364,1.8365,0,1.8502,1.8477,1.8451,1.8435,1.8421,1.8389,1.8397,1.8381,1.8392,1.8393,1.8355,1.8347,1.8325,1.8314,1.8323,1.8267,1.8277,1.8296,1.8327,1.827,1.8248,1.8239,1.836,1.8361,1.8362,1.8362,0,0,1.8403,1.8398,1.8388,1.8382,1.8373,1.8353,1.8322,1.8303,1.8289,1.8276,1.825,1.8216,1.8234,1.8222,1.8231,1.8207,1.8152,1.8229,1.8229,1.8214,1.809,1.8075,1.8064,1.8162,1.8161,1.8159,1.8091,0,1.8334,1.8283,1.8295,1.8243,1.822,1.8245,1.8218,1.8209,1.821,1.819,1.8191,1.8167,1.8193,1.8186,1.8164,1.8163,1.8127,1.8168,1.8137,1.8135,1.8138,1.8052,1.8036,1.7971,1.8082,1.808,1.8079,0,1.8246,1.8233,1.8179,1.8176,1.8166,1.8142,1.8125,1.8106,1.8097,1.81,1.8088,1.8101,1.807,1.8102,1.8059,1.8087,1.8075,1.8073,1.8071,1.8067,1.8103,1.8045,1.7951,1.7941,1.8066,1.8067,1.8068,0,1.8179,1.8147,1.8111,1.8105,1.81,1.8083,1.808,1.8073,1.806,1.8045,1.8038,1.8019,1.8008,1.7993,1.8,1.8023,1.7955,1.7989,1.7956,1.7955,1.7939,1.7939,1.784,1.7933,1.7933,1.7933,1.7933,0,1.81,1.8066,1.8081,1.8059,1.8022,1.8037,1.7999,1.7999,1.7992,1.797,1.799,1.7968,1.798,1.7959,1.7965,1.7928,1.7923,1.7923,1.7925,1.7921,1.7921,1.7912,1.7916,1.793,1.7931,1.7931,1.7932,0,1.8018,1.8027,1.7989,1.7989,1.7988,1.796,1.7959,1.7938,1.7942,1.7914,1.7908,1.7913,1.7889,1.7896,1.787,1.7874,1.7827,1.7835,1.783,1.7832,1.7799,1.7801,1.769,1.7676,1.7778,1.7777,1.7776,0,1.7966,1.7941,1.7938,1.7926,1.7922,1.7901,1.7889,1.7903,1.789,1.7879,1.7859,1.7837,1.7821,1.7782,1.7782,1.7763,1.777,1.7732,1.7766,1.7764,1.7768,1.7769,1.7767,1.7724,1.7723,1.7722,1.7721,0,1.7873,1.788,1.7863,1.7848,1.7834,1.7822,1.7812,1.78,1.7814,1.7798,1.7775,1.7763,1.7737,1.7716,1.7698,1.7694,1.7709,1.7711,1.7702,1.7697,1.7696,1.7696,1.7811,1.7713,1.7714,1.7714,1.7715,1.7715,1.7804,1.7783,1.7779,1.776,1.7755,1.7745,1.7726,1.7728,1.771,1.7692,1.7701,1.7675,1.7667,1.7645,1.7639,1.7618,1.7632,1.7619,1.7616,1.7612,1.7608,1.77,1.7615,1.7615,1.7615,1.7615,1.7616,0,1.7712,1.7711,1.7694,1.768,1.7665,1.7684,1.7675,1.766,1.7637,1.763,1.7614,1.7588,1.7568,1.7568,1.7549,1.7532,1.7539,1.7526,1.7527,1.7526,1.7597,1.7606,1.7521,1.7521,1.7521,1.7521,1.7521,1.7521,1.7662,1.7628,1.7634,1.7598,1.7597,1.7573,1.7566,1.7557,1.7551,1.7522,1.7506,1.7507,1.7503,1.7484,1.7466,1.7466,1.7458,1.7442,1.7445,1.7511,1.7521,1.7529,1.7538,1.7441,1.7441,1.7376,1.7376,1.7375]}]]